QPF
0.00 0.00 0.00 0.00 0.00 0.00 0.00 0.00 0.00 0.00 0.00 0.00 0.00 0.00 0.00 0.00 0.00 0.00 0.00 0.00 0.00 0.00 0.00 0.00 0.00 0.00 0.00 0.00 0.00 0.00 0.00 0.00 0.00 0.00 0.00 0.00 0.00 0.00 0.00 0.00 0.00 0.00 0.00 0.00 0.00
0.00 0.00 0.00 0.00 0.00 0.00 0.00 0.00 0.00 0.00 0.00 0.00 0.00 0.00 0.00 0.00 0.00 0.00 0.00 0.00 0.00 0.00 0.00 0.00 0.00 0.00 0.00 0.00 0.00 0.00 0.00 0.00 0.00 0.00 0.00 0.00 0.00 0.00 0.00 0.00 0.00 0.00 0.00 0.00 0.00
0.00 0.00 0.00 0.00 0.00 0.00 0.00 0.00 0.00 0.00 0.00 0.00 0.00 0.00 0.00 0.00 0.00 0.00 0.00 0.00 0.00 0.00 0.00 0.00 0.00 0.00 0.00 0.00 0.00 0.00 0.00 0.00 0.00 0.00 0.00 0.00 0.00 0.00 0.00 0.00 0.00 0.00 0.00 0.00 0.00
0.00 0.00 0.00 0.00 0.00 0.00 0.00 0.00 0.00 0.00 0.00 0.00 0.00 0.00 0.00 0.00 0.00 0.00 0.00 0.00 0.00 0.00 0.00 0.00 0.00 0.00 0.00 0.00 0.00 0.00 0.00 0.00 0.00 0.00 0.00 0.00 0.00 0.00 0.00 0.00 0.00 0.00 0.00 0.00 0.00
0.00 0.00 0.00 0.00 0.00 0.00 0.00 0.00 0.00 0.00 0.00 0.00 0.00 0.00 0.00 0.00 0.00 0.00 0.00 0.00 0.00 0.00 0.00 0.00 0.00 0.00 0.00 0.00 0.00 0.00 0.00 0.00 0.00 0.00 0.00 0.00 0.00 0.00 0.00 0.00 0.00 0.00 0.00 0.00 0.00
0.00 0.00 0.00 0.00 0.00 0.00 0.00 0.00 0.00 0.00 0.00 0.00 0.00 0.00 0.00 0.00 0.00 0.00 0.00 0.00 0.00 0.00 0.00 0.00 0.00 0.00 0.00 0.00 0.00 0.00 0.00 0.00 0.00 0.00 0.00 0.00 0.00 0.00 0.00 0.00 0.00 0.00 0.00 0.00 0.00
0.00 0.00 0.00 0.00 0.00 0.00 0.00 0.00 0.00 0.00 0.00 0.00 0.00 0.00 0.00 0.00 0.00 0.00 0.00 0.00 0.00 0.00 0.00 0.00 0.00 0.00 0.00 0.00 0.00 0.00 0.00 0.00 0.00 0.00 0.00 0.00 0.00 0.00 0.00 0.00 0.00 0.00 0.00 0.00 0.00
0.00 0.00 0.00 0.00 0.00 0.00 0.00 0.00 0.00 0.00 0.00 0.00 0.00 0.00 0.00 0.00 0.00 0.00 0.00 0.00 0.00 0.00 0.00 0.00 0.00 0.00 0.00 0.00 0.00 0.00 0.00 0.00 0.00 0.00 0.00 0.00 0.00 0.00 0.00 0.00 0.00 0.00 0.00 0.00 0.00
0.00 0.00 0.00 0.00 0.00 0.00 0.00 0.00 0.00 0.00 0.00 0.00 0.00 0.00 0.00 0.00 0.00 0.00 0.00 0.00 0.00 0.00 0.00 0.00 0.00 0.00 0.00 0.00 0.00 0.00 0.00 0.00 0.00 0.00 0.00 0.00 0.00 0.00 0.00 0.00 0.00 0.00 0.00 0.00 0.00
0.00 0.00 0.00 0.00 0.00 0.00 0.00 0.00 0.00 0.00 0.00 0.00 0.00 0.00 0.00 0.00 0.00 0.00 0.00 0.00 0.00 0.00 0.00 0.00 0.00 0.00 0.00 0.00 0.00 0.00 0.00 0.00 0.00 0.00 0.00 0.00 0.00 0.00 0.00 0.00 0.00 0.00 0.00 0.00 0.00
0.00 0.00 0.00 0.00 0.00 0.00 0.00 0.00 0.00 0.00 0.00 0.00 0.00 0.00 0.00 0.00 0.00 0.00 0.00 0.00 0.00 0.00 0.00 0.00 0.00 0.00 0.00 0.00 0.00 0.00 0.00 0.00 0.00 0.00 0.00 0.00 0.00 0.00 0.00 0.00 0.00 0.00 0.00 0.00 0.00
0.00 0.00 0.00 0.00 0.00 0.00 0.00 0.00 0.00 0.00 0.00 0.00 0.00 0.00 0.00 0.00 0.00 0.00 0.00 0.00 0.00 0.00 0.00 0.00 0.00 0.00 0.00 0.00 0.00 0.00 0.00 0.00 0.00 0.00 0.00 0.00 0.00 0.00 0.00 0.00 0.00 0.00 0.00 0.00 0.00
0.00 0.00 0.00 0.00 0.00 0.00 0.00 0.00 0.00 0.00 0.00 0.00 0.00 0.00 0.00 0.00 0.00 0.00 0.00 0.00 0.00 0.00 0.00 0.00 0.00 0.00 0.00 0.00 0.00 0.00 0.00 0.00 0.00 0.00 0.00 0.00 0.00 0.00 0.00 0.00 0.00 0.00 0.00 0.00 0.00
0.00 0.00 0.00 0.00 0.00 0.00 0.00 0.00 0.00 0.00 0.00 0.00 0.00 0.00 0.00 0.00 0.00 0.00 0.00 0.00 0.00 0.00 0.00 0.00 0.00 0.00 0.00 0.00 0.00 0.00 0.00 0.00 0.00 0.00 0.00 0.00 0.00 0.00 0.00 0.00 0.00 0.00 0.00 0.00 0.00
0.00 0.00 0.00 0.00 0.00 0.00 0.00 0.00 0.00 0.00 0.00 0.00 0.00 0.00 0.00 0.00 0.00 0.00 0.00 0.00 0.00 0.00 0.00 0.00 0.00 0.00 0.00 0.00 0.00 0.00 0.00 0.00 0.00 0.00 0.00 0.00 0.00 0.00 0.00 0.00 0.00 0.00 0.00 0.00 0.00
0.00 0.00 0.00 0.00 0.00 0.00 0.00 0.00 0.00 0.00 0.00 0.00 0.00 0.00 0.00 0.00 0.00 0.00 0.00 0.00 0.00 0.00 0.00 0.00 0.00 0.00 0.00 0.00 0.00 0.00 0.00 0.00 0.00 0.00 0.00 0.00 0.00 0.00 0.00 0.00 0.00 0.00 0.00 0.00 0.00
0.00 0.00 0.00 0.00 0.00 0.00 0.00 0.00 0.00 0.00 0.00 0.00 0.00 0.00 0.00 0.00 0.00 0.00 0.00 0.00 0.00 0.00 0.00 0.00 0.00 0.00 0.00 0.00 0.00 0.00 0.00 0.00 0.00 0.00 0.00 0.00 0.00 0.00 0.00 0.00 0.00 0.00 0.00 0.00 0.00
0.00 0.00 0.00 0.00 0.00 0.00 0.00 0.00 0.00 0.00 0.00 0.00 0.00 0.00 0.00 0.00 0.00 0.00 0.00 0.00 0.00 0.00 0.00 0.00 0.00 0.00 0.00 0.00 0.00 0.00 0.00 0.00 0.00 0.00 0.00 0.00 0.00 0.00 0.00 0.00 0.00 0.00 0.00 0.00 0.00
0.00 0.00 0.00 0.00 0.00 0.00 0.00 0.00 0.00 0.00 0.00 0.00 0.00 0.00 0.00 0.00 0.00 0.00 0.00 0.00 0.00 0.00 0.00 0.00 0.00 0.00 0.00 0.00 0.00 0.00 0.00 0.00 0.00 0.00 0.00 0.00 0.00 0.00 0.00 0.00 0.00 0.00 0.00 0.00 0.00
0.00 0.00 0.00 0.00 0.00 0.00 0.00 0.00 0.00 0.00 0.00 0.00 0.00 0.00 0.00 0.00 0.00 0.00 0.00 0.00 0.00 0.00 0.00 0.00 0.00 0.00 0.00 0.00 0.00 0.00 0.00 0.00 0.00 0.00 0.00 0.00 0.00 0.00 0.00 0.00 0.00 0.00 0.00 0.00 0.00
0.00 0.00 0.00 0.00 0.00 0.00 0.00 0.00 0.00 0.00 0.00 0.00 0.00 0.00 0.00 0.00 0.00 0.00 0.00 0.00 0.00 0.00 0.00 0.00 0.00 0.00 0.00 0.00 0.00 0.00 0.00 0.00 0.00 0.00 0.00 0.00 0.00 0.00 0.00 0.00 0.00 0.00 0.00 0.00 0.00
0.00 0.00 0.00 0.00 0.00 0.00 0.00 0.00 0.00 0.00 0.00 0.00 0.00 0.00 0.00 0.00 0.00 0.00 0.00 0.00 0.00 0.00 0.00 0.00 0.00 0.00 0.00 0.00 0.00 0.00 0.00 0.00 0.00 0.00 0.00 0.00 0.00 0.00 0.00 0.00 0.00 0.00 0.00 0.00 0.00
0.00 0.00 0.00 0.00 0.00 0.00 0.00 0.00 0.00 0.00 0.00 0.00 0.00 0.00 0.00 0.00 0.00 0.00 0.00 0.00 0.00 0.00 0.00 0.00 0.00 0.00 0.00 0.00 0.00 0.00 0.00 0.00 0.00 0.00 0.00 0.00 0.00 0.00 0.00 0.00 0.00 0.00 0.00 0.00 0.00
0.00 0.00 0.00 0.00 0.00 0.00 0.00 0.00 0.00 0.00 0.00 0.00 0.00 0.00 0.00 0.00 0.00 0.00 0.00 0.00 0.00 0.00 0.00 0.00 0.00 0.00 0.00 0.00 0.00 0.00 0.00 0.00 0.00 0.00 0.00 0.00 0.00 0.00 0.00 0.00 0.00 0.00 0.00 0.00 0.00
0.00 0.00 0.00 0.00 0.00 0.00 0.00 0.00 0.00 0.00 0.00 0.00 0.00 0.00 0.00 0.00 0.00 0.00 0.00 0.00 0.00 0.00 0.00 0.00 0.00 0.00 0.00 0.00 0.00 0.00 0.00 0.00 0.00 0.00 0.00 0.00 0.00 0.00 0.00 0.00 0.00 0.00 0.00 0.00 0.00
0.00 0.00 0.00 0.00 0.00 0.00 0.00 0.00 0.00 0.00 0.00 0.00 0.00 0.00 0.00 0.00 0.00 0.00 0.00 0.00 0.00 0.00 0.00 0.00 0.00 0.00 0.00 0.00 0.00 0.00 0.00 0.00 0.00 0.00 0.00 0.00 0.00 0.00 0.00 0.00 0.00 0.00 0.00 0.00 0.00
0.00 0.00 0.00 0.00 0.00 0.00 0.00 0.00 0.00 0.00 0.00 0.00 0.00 0.00 0.00 0.00 0.00 0.00 0.00 0.00 0.00 0.00 0.00 0.00 0.00 0.00 0.00 0.00 0.00 0.00 0.00 0.00 0.00 0.00 0.00 0.00 0.00 0.00 0.00 0.00 0.00 0.00 0.00 0.00 0.00
MSLP
1021.51 1021.23 1020.89 1020.67 1020.61 1020.33 1019.98 1019.71 1019.23 1019.15 1019.00 1018.83 1018.71 1018.63 1018.35 1018.35 1018.44 1018.19 1018.29 1018.79 1018.42 1018.09 1018.10 1017.73 1017.46 1017.46 1017.15 1017.04 1017.11 1016.85 1015.78 1014.98 1015.36 1015.91 1016.03 1017.17 1017.33 1017.42 1017.60 1017.27 1016.90 1016.82 1016.75 1017.69 1017.85
1021.70 1021.39 1021.05 1020.79 1020.53 1020.29 1020.20 1019.72 1019.48 1019.30 1019.05 1018.99 1018.85 1018.68 1018.69 1018.50 1018.32 1018.35 1018.93 1018.62 1018.36 1018.19 1018.08 1017.72 1017.49 1017.44 1017.21 1017.38 1017.40 1016.75 1016.19 1015.94 1016.68 1016.90 1017.04 1017.52 1017.80 1017.65 1017.76 1017.12 1016.97 1016.95 1017.32 1018.12 1018.20
1021.82 1021.39 1021.20 1020.79 1020.65 1020.31 1020.11 1019.81 1019.68 1019.50 1019.24 1018.91 1018.87 1018.82 1018.76 1018.64 1018.34 1018.58 1018.81 1018.62 1018.39 1018.32 1018.19 1018.13 1017.91 1017.66 1017.61 1017.86 1017.95 1017.56 1016.81 1017.31 1017.27 1017.76 1018.16 1018.10 1018.23 1018.20 1018.04 1017.64 1017.97 1018.70 1018.80 1018.64 1018.58
1021.68 1021.41 1021.17 1020.88 1020.59 1020.27 1019.96 1019.80 1019.65 1019.47 1019.24 1019.00 1018.91 1018.76 1018.77 1018.63 1018.93 1018.87 1018.84 1018.63 1018.47 1018.28 1018.23 1018.19 1017.98 1017.66 1017.82 1017.95 1018.28 1018.04 1017.83 1018.01 1018.05 1018.45 1018.67 1018.57 1018.58 1018.36 1018.43 1018.57 1019.63 1019.82 1019.89 1019.60 1019.05
1021.53 1021.35 1021.20 1020.88 1020.57 1020.19 1019.78 1019.56 1019.34 1019.34 1019.26 1019.08 1018.70 1018.89 1018.98 1018.55 1018.81 1018.95 1018.94 1018.71 1018.49 1018.42 1018.50 1018.45 1018.16 1018.07 1017.96 1018.29 1018.49 1018.30 1018.39 1018.41 1018.47 1018.66 1018.81 1019.02 1018.83 1018.75 1018.68 1019.78 1020.17 1020.35 1020.23 1019.92 1019.43
1021.61 1021.28 1021.11 1020.87 1020.49 1020.16 1019.73 1019.12 1018.95 1018.94 1019.11 1019.07 1018.89 1018.67 1018.79 1018.74 1018.88 1019.04 1018.95 1018.76 1018.77 1018.59 1018.73 1018.67 1018.57 1018.48 1018.37 1018.58 1018.65 1018.83 1018.79 1018.67 1018.58 1018.70 1019.09 1019.13 1018.68 1019.00 1019.02 1020.12 1020.18 1020.38 1020.29 1020.24 1020.03
1021.56 1021.25 1020.94 1020.67 1020.37 1019.97 1019.62 1019.12 1018.61 1018.49 1018.76 1019.00 1018.91 1018.76 1018.62 1018.98 1018.91 1019.11 1018.93 1019.01 1019.00 1018.88 1018.72 1019.01 1019.01 1018.80 1018.60 1018.64 1019.09 1019.03 1018.83 1018.46 1018.47 1018.91 1018.99 1019.34 1018.30 1018.52 1019.60 1020.12 1020.17 1020.33 1020.38 1020.35 1020.10
1021.30 1021.10 1020.84 1020.51 1020.15 1019.71 1019.34 1018.87 1018.66 1018.23 1018.50 1018.78 1018.84 1018.67 1018.72 1019.16 1019.05 1019.17 1019.18 1019.15 1019.13 1019.05 1019.07 1019.15 1019.18 1019.01 1018.80 1019.00 1018.93 1018.67 1018.67 1018.02 1018.10 1019.00 1019.19 1019.53 1017.41 1018.33 1019.56 1019.95 1020.17 1020.55 1020.54 1020.50 1020.19
1021.15 1021.00 1020.65 1020.37 1020.03 1019.50 1019.09 1018.77 1018.64 1018.47 1018.50 1018.72 1018.86 1018.61 1018.88 1019.14 1019.16 1019.31 1019.36 1019.22 1019.22 1019.22 1019.32 1019.27 1019.17 1019.11 1019.04 1018.36 1018.20 1018.48 1017.95 1018.06 1018.16 1019.08 1019.46 1019.50 1017.88 1018.14 1019.63 1020.09 1020.29 1020.57 1020.73 1020.54 1020.39
1021.16 1020.84 1020.52 1020.19 1019.79 1019.28 1019.02 1018.72 1018.69 1018.64 1018.76 1018.65 1018.84 1019.10 1019.43 1019.02 1019.13 1019.29 1019.46 1019.45 1019.32 1019.24 1019.22 1019.13 1019.01 1018.76 1018.57 1017.81 1018.30 1018.27 1018.13 1018.26 1018.26 1018.50 1019.33 1018.88 1017.81 1018.10 1019.09 1020.01 1020.24 1020.67 1020.75 1020.79 1020.74
1021.12 1020.90 1020.48 1019.98 1019.64 1019.15 1018.93 1018.98 1019.17 1019.36 1018.81 1018.59 1018.57 1018.53 1018.78 1019.20 1019.37 1019.46 1019.54 1019.47 1019.38 1019.21 1018.78 1019.03 1018.62 1018.23 1018.47 1018.70 1019.01 1019.05 1019.07 1018.29 1017.94 1018.57 1019.13 1018.14 1017.59 1017.77 1018.62 1019.91 1020.35 1020.65 1020.77 1020.90 1021.07
1020.84 1020.73 1020.44 1020.00 1019.60 1019.15 1019.36 1019.77 1020.58 1021.18 1019.71 1018.98 1018.75 1018.88 1018.90 1018.93 1019.34 1019.55 1019.70 1019.59 1019.34 1018.88 1019.11 1019.00 1018.18 1018.49 1019.05 1019.10 1019.19 1018.90 1018.70 1018.09 1018.00 1018.38 1018.85 1017.91 1016.91 1017.35 1018.54 1019.47 1020.56 1021.13 1020.90 1021.13 1021.11
1020.69 1020.45 1020.20 1019.97 1019.74 1019.59 1020.32 1020.94 1021.22 1021.09 1020.31 1019.19 1018.87 1018.77 1019.09 1019.15 1019.24 1019.62 1019.72 1019.69 1019.45 1019.14 1018.97 1018.69 1018.77 1019.00 1019.31 1019.26 1019.27 1018.78 1018.69 1018.70 1019.04 1018.52 1018.32 1018.23 1016.63 1017.43 1018.46 1019.60 1020.32 1020.98 1021.61 1021.62 1021.50
1020.54 1020.38 1020.01 1019.81 1020.02 1020.50 1020.59 1020.97 1021.18 1021.18 1020.27 1019.33 1018.96 1019.03 1019.23 1019.22 1019.58 1019.85 1020.00 1019.99 1019.81 1019.44 1019.33 1019.17 1019.37 1019.35 1019.55 1019.62 1019.90 1019.17 1019.23 1019.65 1019.28 1019.57 1018.46 1019.05 1017.42 1017.04 1018.19 1019.16 1020.07 1020.91 1021.57 1021.80 1021.76
1020.15 1020.28 1020.06 1019.59 1020.25 1020.72 1021.07 1021.00 1021.21 1021.11 1020.15 1019.22 1018.98 1019.25 1019.27 1019.50 1019.91 1020.03 1020.38 1019.97 1019.72 1019.55 1020.00 1019.20 1019.55 1019.69 1019.81 1019.87 1020.30 1019.58 1019.65 1019.60 1019.56 1019.83 1019.70 1018.64 1018.80 1016.43 1018.50 1019.13 1020.03 1021.02 1021.69 1022.10 1022.15
1019.59 1019.95 1020.12 1019.99 1020.29 1021.02 1021.03 1020.90 1020.92 1020.81 1019.32 1018.87 1018.87 1019.06 1019.24 1019.40 1019.74 1019.98 1020.11 1020.18 1020.28 1019.90 1019.87 1019.63 1020.20 1020.33 1020.28 1020.36 1020.56 1020.22 1019.57 1019.46 1019.82 1019.66 1019.10 1018.18 1018.56 1016.48 1018.17 1019.69 1020.56 1021.60 1022.13 1022.48 1022.41
1019.17 1019.78 1020.33 1020.19 1020.78 1020.93 1020.84 1020.66 1020.86 1020.01 1018.87 1019.08 1019.04 1019.09 1019.22 1019.36 1019.66 1019.75 1019.90 1020.07 1020.12 1020.08 1019.73 1019.69 1020.09 1020.68 1020.92 1020.75 1020.74 1020.25 1019.98 1019.43 1019.27 1018.90 1017.82 1018.23 1018.65 1016.99 1018.79 1020.28 1021.49 1022.33 1022.76 1022.93 1022.67
1019.22 1019.64 1020.87 1021.37 1021.24 1020.88 1020.69 1020.81 1020.42 1019.19 1018.94 1019.15 1019.12 1019.25 1019.40 1019.57 1019.76 1019.74 1019.89 1019.89 1020.18 1020.22 1019.97 1020.11 1020.11 1020.87 1021.40 1021.47 1021.42 1021.45 1021.74 1021.67 1021.32 1019.58 1018.15 1018.02 1017.79 1017.54 1019.76 1021.09 1022.19 1023.07 1023.37 1022.95 1022.82
1019.53 1020.25 1021.00 1021.76 1021.39 1021.18 1021.12 1020.86 1019.88 1019.60 1019.59 1019.54 1019.55 1019.53 1019.42 1019.69 1020.03 1019.76 1019.66 1019.55 1019.83 1020.30 1020.57 1020.66 1020.71 1021.28 1021.76 1021.98 1022.14 1022.21 1022.35 1023.03 1022.42 1021.32 1020.36 1017.05 1017.13 1018.69 1020.08 1021.23 1021.99 1023.02 1023.09 1023.08 1023.00
1019.66 1020.58 1021.86 1022.09 1021.66 1021.42 1021.23 1020.80 1020.27 1020.13 1020.19 1020.11 1020.22 1019.98 1019.74 1019.70 1019.97 1019.90 1019.30 1019.44 1020.10 1020.74 1021.08 1021.32 1021.45 1021.27 1022.00 1022.39 1022.56 1022.35 1023.15 1023.31 1023.10 1021.65 1019.51 1016.69 1017.51 1018.32 1020.43 1021.75 1022.10 1023.03 1023.30 1023.37 1023.24
1019.76 1020.88 1022.27 1022.06 1021.95 1021.85 1021.70 1021.23 1021.12 1021.10 1021.23 1020.89 1020.64 1020.43 1020.18 1019.98 1019.84 1019.88 1019.30 1019.93 1020.33 1021.15 1021.34 1021.66 1022.08 1021.74 1022.08 1022.33 1022.18 1023.03 1023.08 1023.36 1023.49 1022.85 1021.80 1019.65 1017.87 1019.68 1021.43 1022.63 1022.99 1023.51 1023.72 1023.75 1023.46
1020.19 1021.56 1022.49 1022.22 1022.32 1022.27 1022.01 1021.91 1022.17 1021.96 1021.88 1021.34 1021.01 1020.70 1020.88 1020.53 1020.17 1020.10 1019.67 1019.90 1020.55 1021.06 1021.33 1021.82 1022.02 1021.53 1021.95 1022.71 1023.07 1023.09 1023.19 1023.24 1023.23 1023.04 1022.76 1022.27 1019.63 1020.46 1022.04 1023.22 1023.71 1023.91 1024.19 1024.08 1023.59
1020.82 1022.00 1022.44 1022.22 1022.40 1022.39 1022.29 1022.33 1022.27 1022.30 1022.08 1021.74 1021.42 1021.29 1021.37 1021.17 1021.26 1020.49 1020.24 1020.74 1020.99 1021.26 1021.46 1021.88 1021.92 1021.74 1021.93 1023.25 1023.31 1023.43 1023.62 1023.83 1023.89 1023.89 1022.65 1022.44 1019.59 1021.12 1022.56 1023.40 1023.92 1024.39 1024.66 1024.32 1023.68
1020.90 1021.75 1022.59 1022.66 1022.58 1022.48 1022.29 1022.04 1022.08 1022.26 1021.97 1021.75 1021.80 1021.92 1022.02 1021.65 1021.63 1021.22 1020.79 1021.12 1021.40 1021.58 1021.77 1021.90 1022.05 1021.99 1021.88 1022.25 1022.80 1023.49 1023.66 1023.96 1023.85 1023.69 1022.53 1021.63 1020.36 1020.97 1021.97 1023.42 1023.92 1024.63 1025.05 1024.62 1024.59
1020.63 1021.25 1021.63 1022.16 1022.14 1022.17 1022.15 1021.93 1021.78 1021.85 1021.90 1021.77 1021.87 1021.89 1021.87 1021.77 1021.64 1021.42 1021.12 1021.35 1021.66 1021.78 1022.16 1022.35 1022.45 1022.49 1022.05 1022.70 1023.35 1023.12 1023.19 1023.59 1023.64 1023.00 1022.74 1021.06 1021.91 1021.16 1022.23 1023.47 1024.39 1025.08 1025.06 1024.86 1024.74
1020.75 1021.21 1021.66 1021.74 1021.84 1022.07 1021.94 1021.49 1021.38 1021.32 1021.55 1021.66 1021.85 1021.69 1022.01 1021.92 1021.23 1021.07 1021.08 1021.22 1021.05 1021.96 1022.36 1022.88 1022.70 1022.94 1022.29 1022.73 1023.17 1022.74 1022.56 1023.15 1023.40 1023.29 1022.57 1021.98 1021.65 1021.17 1022.58 1023.45 1024.23 1024.75 1025.03 1025.01 1024.92
1021.01 1021.07 1021.02 1021.37 1021.64 1021.80 1021.40 1021.06 1020.93 1021.20 1021.28 1021.29 1021.53 1021.96 1022.09 1021.97 1021.59 1021.22 1021.06 1021.14 1021.20 1021.60 1022.34 1022.86 1022.86 1022.92 1021.89 1021.77 1021.96 1021.66 1020.24 1021.58 1021.59 1021.71 1020.96 1020.97 1020.13 1021.06 1022.06 1022.69 1023.33 1024.14 1024.89 1025.03 1025.03
Thickness
5621 5622 5624 5624 5623 5623 5624 5625 5627 5624 5624 5623 5623 5622 5623 5622 5619 5619 5615 5610 5611 5612 5612 5614 5614 5611 5611 5608 5603 5599 5608 5612 5600 5587 5589 5571 5565 5562 5556 5553 5555 5553 5551 5541 5538
5615 5617 5619 5620 5621 5621 5619 5621 5621 5621 5621 5620 5618 5619 5616 5617 5617 5614 5607 5607 5608 5608 5608 5610 5610 5607 5606 5600 5594 5598 5601 5598 5579 5573 5568 5559 5551 5549 5544 5548 5545 5541 5531 5520 5518
5610 5613 5613 5617 5616 5617 5617 5618 5616 5615 5617 5618 5616 5614 5613 5611 5614 5608 5604 5603 5603 5603 5602 5600 5599 5600 5596 5589 5583 5582 5592 5570 5567 5558 5549 5544 5539 5537 5533 5534 5525 5506 5500 5496 5492
5607 5609 5610 5611 5611 5613 5614 5614 5612 5612 5612 5613 5612 5611 5608 5608 5613 5602 5600 5599 5599 5598 5596 5594 5595 5595 5591 5587 5573 5577 5568 5559 5553 5542 5533 5530 5527 5522 5517 5507 5481 5473 5467 5467 5468
5604 5605 5605 5606 5607 5608 5610 5611 5611 5608 5607 5607 5610 5605 5603 5606 5600 5597 5595 5595 5594 5592 5589 5587 5588 5586 5587 5574 5565 5565 5556 5548 5543 5534 5527 5518 5512 5507 5502 5474 5462 5450 5443 5439 5439
5597 5600 5600 5601 5603 5604 5606 5609 5609 5607 5603 5602 5602 5603 5602 5604 5594 5591 5590 5590 5587 5587 5582 5580 5578 5573 5571 5564 5562 5549 5543 5538 5533 5528 5517 5506 5505 5490 5482 5452 5441 5428 5419 5410 5406
5592 5594 5596 5597 5598 5600 5602 5604 5606 5606 5601 5598 5597 5597 5599 5594 5589 5585 5585 5583 5581 5579 5578 5571 5567 5567 5563 5559 5544 5538 5535 5534 5528 5516 5510 5493 5498 5481 5452 5434 5423 5408 5392 5383 5379
5587 5589 5590 5592 5594 5597 5599 5601 5601 5603 5598 5594 5592 5593 5594 5583 5581 5579 5578 5577 5574 5572 5569 5564 5560 5556 5556 5544 5538 5537 5531 5544 5532 5506 5496 5481 5498 5474 5435 5417 5401 5382 5373 5365 5363
5581 5582 5585 5586 5588 5592 5594 5596 5595 5594 5592 5589 5588 5590 5588 5579 5578 5573 5572 5572 5569 5566 5561 5557 5554 5550 5546 5552 5554 5537 5543 5533 5519 5493 5480 5467 5475 5457 5416 5394 5379 5368 5359 5356 5353
5574 5576 5578 5580 5582 5586 5588 5590 5589 5587 5584 5583 5581 5584 5574 5579 5573 5569 5565 5563 5563 5560 5558 5554 5552 5557 5551 5560 5548 5535 5529 5520 5508 5500 5469 5462 5457 5444 5410 5378 5368 5359 5354 5346 5340
5565 5567 5570 5573 5575 5579 5581 5582 5585 5582 5580 5586 5583 5580 5574 5569 5565 5562 5559 5559 5557 5557 5564 5549 5559 5564 5546 5531 5519 5509 5497 5503 5508 5487 5459 5460 5448 5434 5407 5373 5361 5355 5347 5337 5329
5557 5558 5562 5565 5567 5571 5568 5568 5561 5555 5576 5569 5569 5566 5565 5565 5563 5557 5553 5556 5555 5565 5545 5551 5565 5544 5525 5517 5510 5510 5507 5512 5499 5482 5460 5454 5446 5426 5394 5374 5352 5342 5339 5329 5323
5549 5552 5554 5556 5557 5558 5552 5548 5545 5546 5560 5565 5562 5562 5558 5558 5558 5552 5548 5544 5549 5549 5547 5556 5544 5525 5517 5517 5507 5514 5504 5497 5475 5470 5457 5441 5452 5408 5384 5364 5353 5345 5328 5321 5315
5542 5544 5547 5549 5549 5543 5544 5539 5537 5537 5561 5562 5556 5554 5550 5550 5550 5541 5537 5540 5536 5547 5532 5539 5522 5520 5517 5509 5491 5493 5491 5469 5463 5441 5470 5421 5452 5429 5391 5370 5355 5343 5325 5314 5307
5535 5535 5538 5542 5538 5537 5532 5532 5529 5530 5562 5550 5547 5543 5541 5544 5538 5536 5528 5531 5540 5537 5519 5543 5520 5516 5505 5504 5482 5493 5475 5464 5449 5432 5417 5430 5407 5449 5380 5376 5358 5337 5320 5309 5302
5530 5528 5527 5530 5529 5523 5523 5525 5525 5547 5559 5548 5540 5539 5539 5536 5532 5529 5528 5523 5518 5521 5515 5518 5502 5501 5500 5487 5475 5470 5468 5458 5438 5432 5440 5429 5420 5458 5407 5363 5344 5328 5315 5304 5299
5524 5519 5516 5519 5520 5516 5517 5520 5531 5545 5539 5542 5537 5532 5533 5535 5529 5526 5525 5525 5536 5539 5539 5517 5507 5491 5481 5485 5474 5466 5466 5503 5500 5480 5498 5423 5414 5441 5376 5349 5330 5311 5302 5295 5298
5516 5513 5504 5502 5506 5509 5511 5516 5535 5536 5530 5519 5524 5523 5529 5520 5521 5518 5519 5531 5504 5505 5519 5535 5546 5490 5469 5469 5462 5449 5442 5461 5467 5490 5473 5429 5419 5443 5362 5339 5318 5303 5294 5304 5299
5507 5501 5496 5490 5495 5499 5505 5513 5533 5523 5518 5518 5515 5519 5522 5512 5509 5514 5517 5528 5517 5499 5524 5520 5521 5475 5462 5454 5451 5441 5449 5416 5408 5386 5394 5450 5443 5386 5363 5350 5336 5308 5307 5303 5299
5501 5493 5482 5479 5483 5489 5493 5516 5511 5501 5502 5503 5517 5508 5524 5512 5509 5506 5519 5515 5505 5489 5481 5482 5515 5481 5458 5448 5442 5446 5426 5428 5410 5437 5471 5487 5435 5442 5375 5343 5333 5309 5306 5301 5301
5494 5486 5473 5473 5474 5478 5490 5495 5483 5482 5480 5486 5489 5503 5503 5509 5506 5509 5524 5502 5494 5479 5477 5467 5471 5482 5458 5452 5464 5438 5435 5413 5401 5401 5426 5438 5474 5386 5357 5332 5317 5308 5305 5301 5303
5486 5480 5466 5467 5469 5461 5476 5468 5460 5465 5467 5480 5481 5484 5483 5489 5502 5498 5511 5506 5488 5482 5484 5469 5469 5501 5478 5427 5425 5426 5427 5420 5430 5426 5395 5387 5432 5376 5350 5326 5312 5312 5305 5306 5309
5469 5463 5460 5461 5476 5468 5458 5455 5452 5453 5461 5465 5470 5475 5460 5480 5485 5483 5495 5477 5478 5479 5476 5464 5486 5517 5494 5443 5430 5422 5409 5398 5388 5378 5405 5413 5478 5368 5347 5333 5317 5310 5307 5309 5316
5467 5469 5450 5449 5448 5456 5458 5462 5463 5448 5458 5463 5462 5457 5452 5468 5455 5470 5481 5473 5470 5473 5467 5465 5464 5480 5532 5502 5442 5433 5410 5399 5402 5409 5419 5415 5438 5412 5386 5349 5331 5321 5313 5315 5315
5461 5461 5455 5471 5457 5450 5449 5455 5455 5457 5451 5454 5455 5452 5460 5468 5454 5454 5470 5466 5465 5469 5459 5459 5464 5433 5444 5412 5403 5420 5413 5403 5398 5403 5425 5427 5379 5410 5386 5354 5335 5325 5324 5325 5324
5455 5455 5444 5450 5445 5443 5446 5457 5459 5458 5452 5451 5449 5450 5450 5452 5471 5478 5465 5470 5479 5463 5458 5443 5469 5429 5445 5394 5386 5413 5416 5403 5399 5389 5377 5382 5387 5401 5363 5342 5344 5339 5334 5334 5334
5437 5440 5449 5449 5441 5443 5451 5455 5459 5451 5449 5451 5450 5443 5440 5448 5450 5455 5459 5458 5467 5464 5456 5445 5451 5447 5506 5424 5426 5470 5443 5413 5413 5403 5423 5437 5453 5387 5388 5382 5371 5357 5345 5344 5342